owner,sensor,date,latitude,longitude,vertical_datum,sea_water_practical_salinity,qcFlag 
ENP,ioos.station.NOAA.NDBC:LMDF1:1,2016-04-01T00:00:00Z,25.1760,-80.6330,1.5,17.56,1111122 
ENP,ioos.station.NOAA.NDBC:LMDF1:1,2016-04-01T01:00:00Z,25.1760,-80.6330,1.5,17.46,1111122 
ENP,ioos.station.NOAA.NDBC:LMDF1:1,2016-04-01T04:00:00Z,25.1760,-80.6330,1.5,17.69,1111122 
ENP,ioos.station.NOAA.NDBC:LMDF1:1,2016-04-01T07:00:00Z,25.1760,-80.6330,1.5,17.87,1111122 
ENP,ioos.station.NOAA.NDBC:LMDF1:1,2016-04-01T08:00:00Z,25.1760,-80.6330,1.5,18.19,1111122 
ENP,ioos.station.NOAA.NDBC:LMDF1:1,2016-04-01T09:00:00Z,25.1760,-80.6330,1.5,18.13,1111122 
ENP,ioos.station.NOAA.NDBC:LMDF1:1,2016-04-01T10:00:00Z,25.1760,-80.6330,1.5,18.4,1111122 
ENP,ioos.station.NOAA.NDBC:LMDF1:1,2016-04-01T11:00:00Z,25.1760,-80.6330,1.5,17.59,1111122 
ENP,ioos.station.NOAA.NDBC:LMDF1:1,2016-04-01T12:00:00Z,25.1760,-80.6330,1.5,18.42,1111122 
ENP,ioos.station.NOAA.NDBC:LMDF1:1,2016-04-01T13:00:00Z,25.1760,-80.6330,1.5,18.36,1111122 
ENP,ioos.station.NOAA.NDBC:LMDF1:1,2016-04-01T14:00:00Z,25.1760,-80.6330,1.5,18.36,1111122 
ENP,ioos.station.NOAA.NDBC:LMDF1:1,2016-04-01T15:00:00Z,25.1760,-80.6330,1.5,17.6,1111122 
ENP,ioos.station.NOAA.NDBC:LMDF1:1,2016-04-01T16:00:00Z,25.1760,-80.6330,1.5,17.59,1111122 
ENP,ioos.station.NOAA.NDBC:LMDF1:1,2016-04-01T17:00:00Z,25.1760,-80.6330,1.5,16.57,1111122 
ENP,ioos.station.NOAA.NDBC:LMDF1:1,2016-04-01T18:00:00Z,25.1760,-80.6330,1.5,17.45,1111122 
ENP,ioos.station.NOAA.NDBC:LMDF1:1,2016-04-01T19:00:00Z,25.1760,-80.6330,1.5,17.15,1111122 
ENP,ioos.station.NOAA.NDBC:LMDF1:1,2016-04-01T20:00:00Z,25.1760,-80.6330,1.5,17.73,1111122 
ENP,ioos.station.NOAA.NDBC:LMDF1:1,2016-04-01T21:00:00Z,25.1760,-80.6330,1.5,17.46,1111122 
ENP,ioos.station.NOAA.NDBC:LMDF1:1,2016-04-01T22:00:00Z,25.1760,-80.6330,1.5,17.29,1111122 
ENP,ioos.station.NOAA.NDBC:LMDF1:1,2016-04-01T23:00:00Z,25.1760,-80.6330,1.5,17.31,1111122 
ENP,ioos.station.NOAA.NDBC:LMDF1:1,2016-04-02T00:00:00Z,25.1760,-80.6330,1.5,17.31,1111122 
ENP,ioos.station.NOAA.NDBC:LMDF1:1,2016-04-02T01:00:00Z,25.1760,-80.6330,1.5,17.31,1111122 
ENP,ioos.station.NOAA.NDBC:LMDF1:1,2016-04-02T04:00:00Z,25.1760,-80.6330,1.5,17.37,1111122 
ENP,ioos.station.NOAA.NDBC:LMDF1:1,2016-04-02T07:00:00Z,25.1760,-80.6330,1.5,17.78,1111122 
ENP,ioos.station.NOAA.NDBC:LMDF1:1,2016-04-02T08:00:00Z,25.1760,-80.6330,1.5,17.98,1111122 
ENP,ioos.station.NOAA.NDBC:LMDF1:1,2016-04-02T09:00:00Z,25.1760,-80.6330,1.5,17.47,1111122 
ENP,ioos.station.NOAA.NDBC:LMDF1:1,2016-04-02T10:00:00Z,25.1760,-80.6330,1.5,18.42,1111122 
ENP,ioos.station.NOAA.NDBC:LMDF1:1,2016-04-02T11:00:00Z,25.1760,-80.6330,1.5,17.97,1111122 
ENP,ioos.station.NOAA.NDBC:LMDF1:1,2016-04-02T12:00:00Z,25.1760,-80.6330,1.5,17.78,1111122 
ENP,ioos.station.NOAA.NDBC:LMDF1:1,2016-04-02T13:00:00Z,25.1760,-80.6330,1.5,15.07,1111122 
ENP,ioos.station.NOAA.NDBC:LMDF1:1,2016-04-02T14:00:00Z,25.1760,-80.6330,1.5,16.13,1111122 
ENP,ioos.station.NOAA.NDBC:LMDF1:1,2016-04-02T15:00:00Z,25.1760,-80.6330,1.5,16.39,1111122 
ENP,ioos.station.NOAA.NDBC:LMDF1:1,2016-04-02T16:00:00Z,25.1760,-80.6330,1.5,16.19,1111122 
ENP,ioos.station.NOAA.NDBC:LMDF1:1,2016-04-02T17:00:00Z,25.1760,-80.6330,1.5,15.74,1111122 
ENP,ioos.station.NOAA.NDBC:LMDF1:1,2016-04-02T18:00:00Z,25.1760,-80.6330,1.5,17.48,1111122 
ENP,ioos.station.NOAA.NDBC:LMDF1:1,2016-04-02T19:00:00Z,25.1760,-80.6330,1.5,17.29,1111122 
ENP,ioos.station.NOAA.NDBC:LMDF1:1,2016-04-02T20:00:00Z,25.1760,-80.6330,1.5,17.27,1111122 
ENP,ioos.station.NOAA.NDBC:LMDF1:1,2016-04-02T21:00:00Z,25.1760,-80.6330,1.5,16.73,1111122 
ENP,ioos.station.NOAA.NDBC:LMDF1:1,2016-04-02T22:00:00Z,25.1760,-80.6330,1.5,17.35,1111122 
ENP,ioos.station.NOAA.NDBC:LMDF1:1,2016-04-02T23:00:00Z,25.1760,-80.6330,1.5,17.55,1111122 
ENP,ioos.station.NOAA.NDBC:LMDF1:1,2016-04-03T00:00:00Z,25.1760,-80.6330,1.5,17.6,1111122 
ENP,ioos.station.NOAA.NDBC:LMDF1:1,2016-04-03T01:00:00Z,25.1760,-80.6330,1.5,17.64,1111122 
ENP,ioos.station.NOAA.NDBC:LMDF1:1,2016-04-03T03:00:00Z,25.1760,-80.6330,1.5,17.5,1111122 
ENP,ioos.station.NOAA.NDBC:LMDF1:1,2016-04-03T04:00:00Z,25.1760,-80.6330,1.5,17.44,1111122 
ENP,ioos.station.NOAA.NDBC:LMDF1:1,2016-04-03T07:00:00Z,25.1760,-80.6330,1.5,17.46,1111122 
ENP,ioos.station.NOAA.NDBC:LMDF1:1,2016-04-03T08:00:00Z,25.1760,-80.6330,1.5,17.54,1111122 
ENP,ioos.station.NOAA.NDBC:LMDF1:1,2016-04-03T09:00:00Z,25.1760,-80.6330,1.5,16.98,1111122 
ENP,ioos.station.NOAA.NDBC:LMDF1:1,2016-04-03T11:00:00Z,25.1760,-80.6330,1.5,17.52,1111122 
ENP,ioos.station.NOAA.NDBC:LMDF1:1,2016-04-03T12:00:00Z,25.1760,-80.6330,1.5,17.45,1111122 
ENP,ioos.station.NOAA.NDBC:LMDF1:1,2016-04-03T13:00:00Z,25.1760,-80.6330,1.5,15.81,1111122 
ENP,ioos.station.NOAA.NDBC:LMDF1:1,2016-04-03T14:00:00Z,25.1760,-80.6330,1.5,15.46,1111122 
ENP,ioos.station.NOAA.NDBC:LMDF1:1,2016-04-03T15:00:00Z,25.1760,-80.6330,1.5,16.19,1111122 
ENP,ioos.station.NOAA.NDBC:LMDF1:1,2016-04-03T16:00:00Z,25.1760,-80.6330,1.5,16.71,1111122 
ENP,ioos.station.NOAA.NDBC:LMDF1:1,2016-04-03T17:00:00Z,25.1760,-80.6330,1.5,16.98,1111122 
ENP,ioos.station.NOAA.NDBC:LMDF1:1,2016-04-03T18:00:00Z,25.1760,-80.6330,1.5,17.21,1111122 
ENP,ioos.station.NOAA.NDBC:LMDF1:1,2016-04-03T19:00:00Z,25.1760,-80.6330,1.5,17.48,1111122 
ENP,ioos.station.NOAA.NDBC:LMDF1:1,2016-04-03T20:00:00Z,25.1760,-80.6330,1.5,16.75,1111122 
ENP,ioos.station.NOAA.NDBC:LMDF1:1,2016-04-03T21:00:00Z,25.1760,-80.6330,1.5,16.53,1111122 
ENP,ioos.station.NOAA.NDBC:LMDF1:1,2016-04-03T22:00:00Z,25.1760,-80.6330,1.5,17.56,1111122 
ENP,ioos.station.NOAA.NDBC:LMDF1:1,2016-04-03T23:00:00Z,25.1760,-80.6330,1.5,15.93,1111122 
ENP,ioos.station.NOAA.NDBC:LMDF1:1,2016-04-04T00:00:00Z,25.1760,-80.6330,1.5,15.93,1111122 
ENP,ioos.station.NOAA.NDBC:LMDF1:1,2016-04-04T01:00:00Z,25.1760,-80.6330,1.5,15.89,1111122 
ENP,ioos.station.NOAA.NDBC:LMDF1:1,2016-04-04T03:00:00Z,25.1760,-80.6330,1.5,16.99,1111122 
ENP,ioos.station.NOAA.NDBC:LMDF1:1,2016-04-04T04:00:00Z,25.1760,-80.6330,1.5,16.57,1111122 
ENP,ioos.station.NOAA.NDBC:LMDF1:1,2016-04-04T07:00:00Z,25.1760,-80.6330,1.5,16.15,1111122 
ENP,ioos.station.NOAA.NDBC:LMDF1:1,2016-04-04T08:00:00Z,25.1760,-80.6330,1.5,15.17,1111122 
ENP,ioos.station.NOAA.NDBC:LMDF1:1,2016-04-04T09:00:00Z,25.1760,-80.6330,1.5,17.77,1111122 
ENP,ioos.station.NOAA.NDBC:LMDF1:1,2016-04-04T11:00:00Z,25.1760,-80.6330,1.5,17.28,1111122 
ENP,ioos.station.NOAA.NDBC:LMDF1:1,2016-04-04T12:00:00Z,25.1760,-80.6330,1.5,15.44,1111122 
ENP,ioos.station.NOAA.NDBC:LMDF1:1,2016-04-04T13:00:00Z,25.1760,-80.6330,1.5,16.86,1111122 
ENP,ioos.station.NOAA.NDBC:LMDF1:1,2016-04-04T14:00:00Z,25.1760,-80.6330,1.5,15.09,1111122 
ENP,ioos.station.NOAA.NDBC:LMDF1:1,2016-04-04T15:00:00Z,25.1760,-80.6330,1.5,17.88,1111122 
ENP,ioos.station.NOAA.NDBC:LMDF1:1,2016-04-04T16:00:00Z,25.1760,-80.6330,1.5,17.82,1111122 
ENP,ioos.station.NOAA.NDBC:LMDF1:1,2016-04-04T17:00:00Z,25.1760,-80.6330,1.5,17.54,1111122 
ENP,ioos.station.NOAA.NDBC:LMDF1:1,2016-04-04T18:00:00Z,25.1760,-80.6330,1.5,17.48,1111122 
ENP,ioos.station.NOAA.NDBC:LMDF1:1,2016-04-04T19:00:00Z,25.1760,-80.6330,1.5,18.44,1111122 
ENP,ioos.station.NOAA.NDBC:LMDF1:1,2016-04-04T20:00:00Z,25.1760,-80.6330,1.5,18.24,1111122 
ENP,ioos.station.NOAA.NDBC:LMDF1:1,2016-04-04T21:00:00Z,25.1760,-80.6330,1.5,17.25,1111122 
ENP,ioos.station.NOAA.NDBC:LMDF1:1,2016-04-04T22:00:00Z,25.1760,-80.6330,1.5,16.79,1111122 
ENP,ioos.station.NOAA.NDBC:LMDF1:1,2016-04-04T23:00:00Z,25.1760,-80.6330,1.5,18.34,1111122 
ENP,ioos.station.NOAA.NDBC:LMDF1:1,2016-04-05T00:00:00Z,25.1760,-80.6330,1.5,18.13,1111122 
ENP,ioos.station.NOAA.NDBC:LMDF1:1,2016-04-05T01:00:00Z,25.1760,-80.6330,1.5,17.67,1111122 
ENP,ioos.station.NOAA.NDBC:LMDF1:1,2016-04-05T04:00:00Z,25.1760,-80.6330,1.5,18.68,1111122 
ENP,ioos.station.NOAA.NDBC:LMDF1:1,2016-04-05T07:00:00Z,25.1760,-80.6330,1.5,19.52,1111122 
ENP,ioos.station.NOAA.NDBC:LMDF1:1,2016-04-05T08:00:00Z,25.1760,-80.6330,1.5,19.48,1111122 
ENP,ioos.station.NOAA.NDBC:LMDF1:1,2016-04-05T09:00:00Z,25.1760,-80.6330,1.5,19.59,1111122 
ENP,ioos.station.NOAA.NDBC:LMDF1:1,2016-04-05T18:00:00Z,25.1760,-80.6330,1.5,19.66,1111122 
ENP,ioos.station.NOAA.NDBC:LMDF1:1,2016-04-05T19:00:00Z,25.1760,-80.6330,1.5,19.23,1111122 
ENP,ioos.station.NOAA.NDBC:LMDF1:1,2016-04-05T20:00:00Z,25.1760,-80.6330,1.5,19.57,1111122 
ENP,ioos.station.NOAA.NDBC:LMDF1:1,2016-04-05T21:00:00Z,25.1760,-80.6330,1.5,19.28,1111122 
ENP,ioos.station.NOAA.NDBC:LMDF1:1,2016-04-05T22:00:00Z,25.1760,-80.6330,1.5,19.07,1111122 
ENP,ioos.station.NOAA.NDBC:LMDF1:1,2016-04-05T23:00:00Z,25.1760,-80.6330,1.5,17.76,1111122 
ENP,ioos.station.NOAA.NDBC:LMDF1:1,2016-04-06T00:00:00Z,25.1760,-80.6330,1.5,18.97,1111122 
ENP,ioos.station.NOAA.NDBC:LMDF1:1,2016-04-06T01:00:00Z,25.1760,-80.6330,1.5,19.47,1111122 
ENP,ioos.station.NOAA.NDBC:LMDF1:1,2016-04-06T04:00:00Z,25.1760,-80.6330,1.5,19.77,1111122 
ENP,ioos.station.NOAA.NDBC:LMDF1:1,2016-04-06T07:00:00Z,25.1760,-80.6330,1.5,17.55,1111122 
ENP,ioos.station.NOAA.NDBC:LMDF1:1,2016-04-06T08:00:00Z,25.1760,-80.6330,1.5,18.09,1111122 
ENP,ioos.station.NOAA.NDBC:LMDF1:1,2016-04-06T09:00:00Z,25.1760,-80.6330,1.5,19.43,1111122 
ENP,ioos.station.NOAA.NDBC:LMDF1:1,2016-04-06T11:00:00Z,25.1760,-80.6330,1.5,19.85,1111122 
ENP,ioos.station.NOAA.NDBC:LMDF1:1,2016-04-06T12:00:00Z,25.1760,-80.6330,1.5,19.2,1111122 
ENP,ioos.station.NOAA.NDBC:LMDF1:1,2016-04-06T13:00:00Z,25.1760,-80.6330,1.5,16.94,1111122 
ENP,ioos.station.NOAA.NDBC:LMDF1:1,2016-04-06T14:00:00Z,25.1760,-80.6330,1.5,19.5,1111122 
ENP,ioos.station.NOAA.NDBC:LMDF1:1,2016-04-06T15:00:00Z,25.1760,-80.6330,1.5,19.51,1111122 
ENP,ioos.station.NOAA.NDBC:LMDF1:1,2016-04-06T16:00:00Z,25.1760,-80.6330,1.5,19.16,1111122 
ENP,ioos.station.NOAA.NDBC:LMDF1:1,2016-04-06T17:00:00Z,25.1760,-80.6330,1.5,19.18,1111122 
ENP,ioos.station.NOAA.NDBC:LMDF1:1,2016-04-06T18:00:00Z,25.1760,-80.6330,1.5,19.3,1111122 
ENP,ioos.station.NOAA.NDBC:LMDF1:1,2016-04-06T19:00:00Z,25.1760,-80.6330,1.5,19.33,1111122 
ENP,ioos.station.NOAA.NDBC:LMDF1:1,2016-04-06T20:00:00Z,25.1760,-80.6330,1.5,18.93,1111122 
ENP,ioos.station.NOAA.NDBC:LMDF1:1,2016-04-06T21:00:00Z,25.1760,-80.6330,1.5,18.66,1111122 
ENP,ioos.station.NOAA.NDBC:LMDF1:1,2016-04-06T22:00:00Z,25.1760,-80.6330,1.5,18.95,1111122 
ENP,ioos.station.NOAA.NDBC:LMDF1:1,2016-04-06T23:00:00Z,25.1760,-80.6330,1.5,17.74,1111122 
ENP,ioos.station.NOAA.NDBC:LMDF1:1,2016-04-07T00:00:00Z,25.1760,-80.6330,1.5,16.05,1111122 
ENP,ioos.station.NOAA.NDBC:LMDF1:1,2016-04-07T01:00:00Z,25.1760,-80.6330,1.5,17.63,1111122 
ENP,ioos.station.NOAA.NDBC:LMDF1:1,2016-04-07T04:00:00Z,25.1760,-80.6330,1.5,17.63,1111122 
ENP,ioos.station.NOAA.NDBC:LMDF1:1,2016-04-07T07:00:00Z,25.1760,-80.6330,1.5,18.06,1111122 
ENP,ioos.station.NOAA.NDBC:LMDF1:1,2016-04-07T08:00:00Z,25.1760,-80.6330,1.5,17.7,1111122 
ENP,ioos.station.NOAA.NDBC:LMDF1:1,2016-04-07T09:00:00Z,25.1760,-80.6330,1.5,17.88,1111122 
ENP,ioos.station.NOAA.NDBC:LMDF1:1,2016-04-07T11:00:00Z,25.1760,-80.6330,1.5,17.4,1111122 
ENP,ioos.station.NOAA.NDBC:LMDF1:1,2016-04-07T12:00:00Z,25.1760,-80.6330,1.5,17.76,1111122 
ENP,ioos.station.NOAA.NDBC:LMDF1:1,2016-04-07T13:00:00Z,25.1760,-80.6330,1.5,17.87,1111122 
ENP,ioos.station.NOAA.NDBC:LMDF1:1,2016-04-07T14:00:00Z,25.1760,-80.6330,1.5,18.08,1111122 
ENP,ioos.station.NOAA.NDBC:LMDF1:1,2016-04-07T15:00:00Z,25.1760,-80.6330,1.5,18.47,1111122 
ENP,ioos.station.NOAA.NDBC:LMDF1:1,2016-04-07T16:00:00Z,25.1760,-80.6330,1.5,18.78,1111122 
ENP,ioos.station.NOAA.NDBC:LMDF1:1,2016-04-07T17:00:00Z,25.1760,-80.6330,1.5,18.89,1111122 
ENP,ioos.station.NOAA.NDBC:LMDF1:1,2016-04-07T18:00:00Z,25.1760,-80.6330,1.5,18.88,1111122 
ENP,ioos.station.NOAA.NDBC:LMDF1:1,2016-04-07T19:00:00Z,25.1760,-80.6330,1.5,18.98,1111122 
ENP,ioos.station.NOAA.NDBC:LMDF1:1,2016-04-07T20:00:00Z,25.1760,-80.6330,1.5,18.98,1111122 
ENP,ioos.station.NOAA.NDBC:LMDF1:1,2016-04-07T21:00:00Z,25.1760,-80.6330,1.5,19.0,1111122 
ENP,ioos.station.NOAA.NDBC:LMDF1:1,2016-04-07T22:00:00Z,25.1760,-80.6330,1.5,18.76,1111122 
ENP,ioos.station.NOAA.NDBC:LMDF1:1,2016-04-07T23:00:00Z,25.1760,-80.6330,1.5,18.93,1111122 
ENP,ioos.station.NOAA.NDBC:LMDF1:1,2016-04-08T00:00:00Z,25.1760,-80.6330,1.5,18.96,1111122 
ENP,ioos.station.NOAA.NDBC:LMDF1:1,2016-04-08T01:00:00Z,25.1760,-80.6330,1.5,18.85,1111122 
ENP,ioos.station.NOAA.NDBC:LMDF1:1,2016-04-08T04:00:00Z,25.1760,-80.6330,1.5,19.07,1111122 
ENP,ioos.station.NOAA.NDBC:LMDF1:1,2016-04-08T07:00:00Z,25.1760,-80.6330,1.5,19.3,1111122 
ENP,ioos.station.NOAA.NDBC:LMDF1:1,2016-04-08T08:00:00Z,25.1760,-80.6330,1.5,19.34,1111122 
ENP,ioos.station.NOAA.NDBC:LMDF1:1,2016-04-08T09:00:00Z,25.1760,-80.6330,1.5,18.89,1111122 
ENP,ioos.station.NOAA.NDBC:LMDF1:1,2016-04-08T10:00:00Z,25.1760,-80.6330,1.5,19.23,1111122 
ENP,ioos.station.NOAA.NDBC:LMDF1:1,2016-04-08T11:00:00Z,25.1760,-80.6330,1.5,19.3,1111122 
ENP,ioos.station.NOAA.NDBC:LMDF1:1,2016-04-08T12:00:00Z,25.1760,-80.6330,1.5,19.35,1111122 
ENP,ioos.station.NOAA.NDBC:LMDF1:1,2016-04-08T13:00:00Z,25.1760,-80.6330,1.5,19.35,1111122 
ENP,ioos.station.NOAA.NDBC:LMDF1:1,2016-04-08T14:00:00Z,25.1760,-80.6330,1.5,19.38,1111122 
ENP,ioos.station.NOAA.NDBC:LMDF1:1,2016-04-08T15:00:00Z,25.1760,-80.6330,1.5,19.41,1111122 
ENP,ioos.station.NOAA.NDBC:LMDF1:1,2016-04-08T16:00:00Z,25.1760,-80.6330,1.5,19.41,1111122 
ENP,ioos.station.NOAA.NDBC:LMDF1:1,2016-04-08T17:00:00Z,25.1760,-80.6330,1.5,19.22,1111122 
ENP,ioos.station.NOAA.NDBC:LMDF1:1,2016-04-08T18:00:00Z,25.1760,-80.6330,1.5,19.32,1111122 
ENP,ioos.station.NOAA.NDBC:LMDF1:1,2016-04-08T19:00:00Z,25.1760,-80.6330,1.5,19.4,1111122 
ENP,ioos.station.NOAA.NDBC:LMDF1:1,2016-04-08T20:00:00Z,25.1760,-80.6330,1.5,19.49,1111122 
ENP,ioos.station.NOAA.NDBC:LMDF1:1,2016-04-08T21:00:00Z,25.1760,-80.6330,1.5,19.56,1111122 
ENP,ioos.station.NOAA.NDBC:LMDF1:1,2016-04-08T22:00:00Z,25.1760,-80.6330,1.5,19.54,1111122 
ENP,ioos.station.NOAA.NDBC:LMDF1:1,2016-04-08T23:00:00Z,25.1760,-80.6330,1.5,19.43,1111122 
ENP,ioos.station.NOAA.NDBC:LMDF1:1,2016-04-09T00:00:00Z,25.1760,-80.6330,1.5,19.24,1111122 
ENP,ioos.station.NOAA.NDBC:LMDF1:1,2016-04-09T01:00:00Z,25.1760,-80.6330,1.5,19.23,1111122 
ENP,ioos.station.NOAA.NDBC:LMDF1:1,2016-04-09T04:00:00Z,25.1760,-80.6330,1.5,19.41,1111122 
ENP,ioos.station.NOAA.NDBC:LMDF1:1,2016-04-09T07:00:00Z,25.1760,-80.6330,1.5,19.6,1111122 
ENP,ioos.station.NOAA.NDBC:LMDF1:1,2016-04-09T08:00:00Z,25.1760,-80.6330,1.5,19.6,1111122 
ENP,ioos.station.NOAA.NDBC:LMDF1:1,2016-04-09T09:00:00Z,25.1760,-80.6330,1.5,19.28,1111122 
ENP,ioos.station.NOAA.NDBC:LMDF1:1,2016-04-09T10:00:00Z,25.1760,-80.6330,1.5,17.11,1111122 
ENP,ioos.station.NOAA.NDBC:LMDF1:1,2016-04-09T11:00:00Z,25.1760,-80.6330,1.5,19.26,1111122 
ENP,ioos.station.NOAA.NDBC:LMDF1:1,2016-04-09T12:00:00Z,25.1760,-80.6330,1.5,19.47,1111122 
ENP,ioos.station.NOAA.NDBC:LMDF1:1,2016-04-09T13:00:00Z,25.1760,-80.6330,1.5,18.83,1111122 
ENP,ioos.station.NOAA.NDBC:LMDF1:1,2016-04-09T14:00:00Z,25.1760,-80.6330,1.5,19.28,1111122 
ENP,ioos.station.NOAA.NDBC:LMDF1:1,2016-04-09T15:00:00Z,25.1760,-80.6330,1.5,19.47,1111122 
ENP,ioos.station.NOAA.NDBC:LMDF1:1,2016-04-09T16:00:00Z,25.1760,-80.6330,1.5,19.58,1111122 
ENP,ioos.station.NOAA.NDBC:LMDF1:1,2016-04-09T17:00:00Z,25.1760,-80.6330,1.5,19.69,1111122 
ENP,ioos.station.NOAA.NDBC:LMDF1:1,2016-04-09T18:00:00Z,25.1760,-80.6330,1.5,18.49,1111122 
ENP,ioos.station.NOAA.NDBC:LMDF1:1,2016-04-09T19:00:00Z,25.1760,-80.6330,1.5,18.99,1111122 
ENP,ioos.station.NOAA.NDBC:LMDF1:1,2016-04-09T20:00:00Z,25.1760,-80.6330,1.5,19.48,1111122 
ENP,ioos.station.NOAA.NDBC:LMDF1:1,2016-04-09T21:00:00Z,25.1760,-80.6330,1.5,19.49,1111122 
ENP,ioos.station.NOAA.NDBC:LMDF1:1,2016-04-09T22:00:00Z,25.1760,-80.6330,1.5,19.36,1111122 
ENP,ioos.station.NOAA.NDBC:LMDF1:1,2016-04-09T23:00:00Z,25.1760,-80.6330,1.5,19.34,1111122 
ENP,ioos.station.NOAA.NDBC:LMDF1:1,2016-04-10T00:00:00Z,25.1760,-80.6330,1.5,19.3,1111122 
ENP,ioos.station.NOAA.NDBC:LMDF1:1,2016-04-10T01:00:00Z,25.1760,-80.6330,1.5,18.49,1111122 
ENP,ioos.station.NOAA.NDBC:LMDF1:1,2016-04-10T04:00:00Z,25.1760,-80.6330,1.5,18.89,1111122 
ENP,ioos.station.NOAA.NDBC:LMDF1:1,2016-04-10T07:00:00Z,25.1760,-80.6330,1.5,19.0,1111122 
ENP,ioos.station.NOAA.NDBC:LMDF1:1,2016-04-10T08:00:00Z,25.1760,-80.6330,1.5,17.42,1111122 
ENP,ioos.station.NOAA.NDBC:LMDF1:1,2016-04-10T09:00:00Z,25.1760,-80.6330,1.5,18.34,1111122 
ENP,ioos.station.NOAA.NDBC:LMDF1:1,2016-04-10T10:00:00Z,25.1760,-80.6330,1.5,19.18,1111122 
ENP,ioos.station.NOAA.NDBC:LMDF1:1,2016-04-10T12:00:00Z,25.1760,-80.6330,1.5,18.32,1111122 
ENP,ioos.station.NOAA.NDBC:LMDF1:1,2016-04-10T13:00:00Z,25.1760,-80.6330,1.5,19.38,1111122 
ENP,ioos.station.NOAA.NDBC:LMDF1:1,2016-04-10T14:00:00Z,25.1760,-80.6330,1.5,18.53,1111122 
ENP,ioos.station.NOAA.NDBC:LMDF1:1,2016-04-10T15:00:00Z,25.1760,-80.6330,1.5,17.79,1111122 
ENP,ioos.station.NOAA.NDBC:LMDF1:1,2016-04-10T16:00:00Z,25.1760,-80.6330,1.5,17.48,1111122 
ENP,ioos.station.NOAA.NDBC:LMDF1:1,2016-04-10T17:00:00Z,25.1760,-80.6330,1.5,16.67,1111122 
ENP,ioos.station.NOAA.NDBC:LMDF1:1,2016-04-10T18:00:00Z,25.1760,-80.6330,1.5,16.69,1111122 
ENP,ioos.station.NOAA.NDBC:LMDF1:1,2016-04-10T19:00:00Z,25.1760,-80.6330,1.5,16.67,1111122 
ENP,ioos.station.NOAA.NDBC:LMDF1:1,2016-04-10T20:00:00Z,25.1760,-80.6330,1.5,16.37,1111122 
ENP,ioos.station.NOAA.NDBC:LMDF1:1,2016-04-10T21:00:00Z,25.1760,-80.6330,1.5,16.56,1111122 
ENP,ioos.station.NOAA.NDBC:LMDF1:1,2016-04-10T22:00:00Z,25.1760,-80.6330,1.5,16.43,1111122 
ENP,ioos.station.NOAA.NDBC:LMDF1:1,2016-04-10T23:00:00Z,25.1760,-80.6330,1.5,16.32,1111122 
ENP,ioos.station.NOAA.NDBC:LMDF1:1,2016-04-11T00:00:00Z,25.1760,-80.6330,1.5,16.61,1111122 
ENP,ioos.station.NOAA.NDBC:LMDF1:1,2016-04-11T01:00:00Z,25.1760,-80.6330,1.5,16.73,1111122 
ENP,ioos.station.NOAA.NDBC:LMDF1:1,2016-04-11T02:00:00Z,25.1760,-80.6330,1.5,16.7,1111122 
ENP,ioos.station.NOAA.NDBC:LMDF1:1,2016-04-11T04:00:00Z,25.1760,-80.6330,1.5,17.92,1111122 
ENP,ioos.station.NOAA.NDBC:LMDF1:1,2016-04-11T05:00:00Z,25.1760,-80.6330,1.5,17.39,1111122 
ENP,ioos.station.NOAA.NDBC:LMDF1:1,2016-04-11T07:00:00Z,25.1760,-80.6330,1.5,18.66,1111122 
ENP,ioos.station.NOAA.NDBC:LMDF1:1,2016-04-11T08:00:00Z,25.1760,-80.6330,1.5,18.16,1111122 
ENP,ioos.station.NOAA.NDBC:LMDF1:1,2016-04-11T09:00:00Z,25.1760,-80.6330,1.5,17.48,1111122 
ENP,ioos.station.NOAA.NDBC:LMDF1:1,2016-04-11T10:00:00Z,25.1760,-80.6330,1.5,17.29,1111122 
ENP,ioos.station.NOAA.NDBC:LMDF1:1,2016-04-11T11:00:00Z,25.1760,-80.6330,1.5,17.74,1111122 
ENP,ioos.station.NOAA.NDBC:LMDF1:1,2016-04-11T12:00:00Z,25.1760,-80.6330,1.5,17.02,1111122 
ENP,ioos.station.NOAA.NDBC:LMDF1:1,2016-04-11T13:00:00Z,25.1760,-80.6330,1.5,17.65,1111122 
ENP,ioos.station.NOAA.NDBC:LMDF1:1,2016-04-11T14:00:00Z,25.1760,-80.6330,1.5,17.39,1111122 
ENP,ioos.station.NOAA.NDBC:LMDF1:1,2016-04-11T15:00:00Z,25.1760,-80.6330,1.5,17.61,1111122 
ENP,ioos.station.NOAA.NDBC:LMDF1:1,2016-04-11T16:00:00Z,25.1760,-80.6330,1.5,17.9,1111122 
ENP,ioos.station.NOAA.NDBC:LMDF1:1,2016-04-11T17:00:00Z,25.1760,-80.6330,1.5,16.75,1111122 
ENP,ioos.station.NOAA.NDBC:LMDF1:1,2016-04-11T18:00:00Z,25.1760,-80.6330,1.5,16.48,1111122 
ENP,ioos.station.NOAA.NDBC:LMDF1:1,2016-04-11T19:00:00Z,25.1760,-80.6330,1.5,16.27,1111122 
ENP,ioos.station.NOAA.NDBC:LMDF1:1,2016-04-11T20:00:00Z,25.1760,-80.6330,1.5,16.07,1111122 
ENP,ioos.station.NOAA.NDBC:LMDF1:1,2016-04-11T21:00:00Z,25.1760,-80.6330,1.5,16.73,1111122 
ENP,ioos.station.NOAA.NDBC:LMDF1:1,2016-04-11T22:00:00Z,25.1760,-80.6330,1.5,16.75,1111122 
ENP,ioos.station.NOAA.NDBC:LMDF1:1,2016-04-11T23:00:00Z,25.1760,-80.6330,1.5,16.11,1111122 
ENP,ioos.station.NOAA.NDBC:LMDF1:1,2016-04-12T00:00:00Z,25.1760,-80.6330,1.5,15.88,1111122 
ENP,ioos.station.NOAA.NDBC:LMDF1:1,2016-04-12T01:00:00Z,25.1760,-80.6330,1.5,16.14,1111122 
ENP,ioos.station.NOAA.NDBC:LMDF1:1,2016-04-12T02:00:00Z,25.1760,-80.6330,1.5,16.54,1111122 
ENP,ioos.station.NOAA.NDBC:LMDF1:1,2016-04-12T04:00:00Z,25.1760,-80.6330,1.5,16.71,1111122 
ENP,ioos.station.NOAA.NDBC:LMDF1:1,2016-04-12T05:00:00Z,25.1760,-80.6330,1.5,16.3,1111122 
ENP,ioos.station.NOAA.NDBC:LMDF1:1,2016-04-12T07:00:00Z,25.1760,-80.6330,1.5,16.88,1111122 
ENP,ioos.station.NOAA.NDBC:LMDF1:1,2016-04-12T08:00:00Z,25.1760,-80.6330,1.5,16.33,1111122 
ENP,ioos.station.NOAA.NDBC:LMDF1:1,2016-04-12T09:00:00Z,25.1760,-80.6330,1.5,16.25,1111122 
ENP,ioos.station.NOAA.NDBC:LMDF1:1,2016-04-12T10:00:00Z,25.1760,-80.6330,1.5,16.15,1111122 
ENP,ioos.station.NOAA.NDBC:LMDF1:1,2016-04-12T11:00:00Z,25.1760,-80.6330,1.5,16.13,1111122 
ENP,ioos.station.NOAA.NDBC:LMDF1:1,2016-04-12T12:00:00Z,25.1760,-80.6330,1.5,16.49,1111122 
ENP,ioos.station.NOAA.NDBC:LMDF1:1,2016-04-12T13:00:00Z,25.1760,-80.6330,1.5,16.47,1111122 
ENP,ioos.station.NOAA.NDBC:LMDF1:1,2016-04-12T14:00:00Z,25.1760,-80.6330,1.5,16.88,1111122 
ENP,ioos.station.NOAA.NDBC:LMDF1:1,2016-04-12T15:00:00Z,25.1760,-80.6330,1.5,18.58,1111122 
ENP,ioos.station.NOAA.NDBC:LMDF1:1,2016-04-12T16:00:00Z,25.1760,-80.6330,1.5,17.5,1111122 
ENP,ioos.station.NOAA.NDBC:LMDF1:1,2016-04-12T17:00:00Z,25.1760,-80.6330,1.5,18.72,1111122 
ENP,ioos.station.NOAA.NDBC:LMDF1:1,2016-04-12T18:00:00Z,25.1760,-80.6330,1.5,18.32,1111122 
ENP,ioos.station.NOAA.NDBC:LMDF1:1,2016-04-12T19:00:00Z,25.1760,-80.6330,1.5,18.58,1111122 
ENP,ioos.station.NOAA.NDBC:LMDF1:1,2016-04-12T20:00:00Z,25.1760,-80.6330,1.5,18.72,1111122 
ENP,ioos.station.NOAA.NDBC:LMDF1:1,2016-04-12T21:00:00Z,25.1760,-80.6330,1.5,18.89,1111122 
ENP,ioos.station.NOAA.NDBC:LMDF1:1,2016-04-12T22:00:00Z,25.1760,-80.6330,1.5,18.92,1111122 
ENP,ioos.station.NOAA.NDBC:LMDF1:1,2016-04-12T23:00:00Z,25.1760,-80.6330,1.5,19.17,1111122 
ENP,ioos.station.NOAA.NDBC:LMDF1:1,2016-04-13T00:00:00Z,25.1760,-80.6330,1.5,19.34,1111122 
ENP,ioos.station.NOAA.NDBC:LMDF1:1,2016-04-13T01:00:00Z,25.1760,-80.6330,1.5,19.46,1111122 
ENP,ioos.station.NOAA.NDBC:LMDF1:1,2016-04-13T02:00:00Z,25.1760,-80.6330,1.5,19.42,1111122 
ENP,ioos.station.NOAA.NDBC:LMDF1:1,2016-04-13T04:00:00Z,25.1760,-80.6330,1.5,18.61,1111122 
ENP,ioos.station.NOAA.NDBC:LMDF1:1,2016-04-13T05:00:00Z,25.1760,-80.6330,1.5,19.13,1111122 
ENP,ioos.station.NOAA.NDBC:LMDF1:1,2016-04-13T07:00:00Z,25.1760,-80.6330,1.5,17.6,1111122 
ENP,ioos.station.NOAA.NDBC:LMDF1:1,2016-04-13T08:00:00Z,25.1760,-80.6330,1.5,17.68,1111122 
ENP,ioos.station.NOAA.NDBC:LMDF1:1,2016-04-13T09:00:00Z,25.1760,-80.6330,1.5,18.13,1111122 
ENP,ioos.station.NOAA.NDBC:LMDF1:1,2016-04-13T10:00:00Z,25.1760,-80.6330,1.5,18.58,1111122 
ENP,ioos.station.NOAA.NDBC:LMDF1:1,2016-04-13T11:00:00Z,25.1760,-80.6330,1.5,18.74,1111122 
ENP,ioos.station.NOAA.NDBC:LMDF1:1,2016-04-13T12:00:00Z,25.1760,-80.6330,1.5,18.96,1111122 
ENP,ioos.station.NOAA.NDBC:LMDF1:1,2016-04-13T13:00:00Z,25.1760,-80.6330,1.5,19.08,1111122 
ENP,ioos.station.NOAA.NDBC:LMDF1:1,2016-04-13T14:00:00Z,25.1760,-80.6330,1.5,18.4,1111122 
ENP,ioos.station.NOAA.NDBC:LMDF1:1,2016-04-13T15:00:00Z,25.1760,-80.6330,1.5,19.04,1111122 
ENP,ioos.station.NOAA.NDBC:LMDF1:1,2016-04-13T16:00:00Z,25.1760,-80.6330,1.5,18.92,1111122 
ENP,ioos.station.NOAA.NDBC:LMDF1:1,2016-04-13T17:00:00Z,25.1760,-80.6330,1.5,18.87,1111122 
ENP,ioos.station.NOAA.NDBC:LMDF1:1,2016-04-13T18:00:00Z,25.1760,-80.6330,1.5,18.94,1111122 
ENP,ioos.station.NOAA.NDBC:LMDF1:1,2016-04-13T19:00:00Z,25.1760,-80.6330,1.5,18.91,1111122 
ENP,ioos.station.NOAA.NDBC:LMDF1:1,2016-04-13T20:00:00Z,25.1760,-80.6330,1.5,18.66,1111122 
ENP,ioos.station.NOAA.NDBC:LMDF1:1,2016-04-13T21:00:00Z,25.1760,-80.6330,1.5,19.08,1111122 
ENP,ioos.station.NOAA.NDBC:LMDF1:1,2016-04-13T22:00:00Z,25.1760,-80.6330,1.5,18.8,1111122 
ENP,ioos.station.NOAA.NDBC:LMDF1:1,2016-04-13T23:00:00Z,25.1760,-80.6330,1.5,18.89,1111122 
ENP,ioos.station.NOAA.NDBC:LMDF1:1,2016-04-14T00:00:00Z,25.1760,-80.6330,1.5,19.03,1111122 
ENP,ioos.station.NOAA.NDBC:LMDF1:1,2016-04-14T01:00:00Z,25.1760,-80.6330,1.5,19.06,1111122 
ENP,ioos.station.NOAA.NDBC:LMDF1:1,2016-04-14T02:00:00Z,25.1760,-80.6330,1.5,19.09,1111122 
ENP,ioos.station.NOAA.NDBC:LMDF1:1,2016-04-14T04:00:00Z,25.1760,-80.6330,1.5,19.15,1111122 
ENP,ioos.station.NOAA.NDBC:LMDF1:1,2016-04-14T05:00:00Z,25.1760,-80.6330,1.5,18.81,1111122 